Beach, ND

2:30 AM MDT on August 24, 2016 (GMT -0600)
Beach

Weather History for K20U - February, 2013

Change the Weather History Date:

Friday, February 1, 2013

  Actual Average (KGDV) Record (KGDV)
Temperature  
Mean Temperature 23 °F -  
Max Temperature 32 °F 28 °F 48 °F (2005)
Min Temperature 14 °F 10 °F -27 °F (2011)
Degree Days  
Heating Degree Days 42    
Moisture  
Dew Point 22 °F    
Average Humidity 90    
Maximum Humidity 100    
Minimum Humidity 79    
Precipitation  
Precipitation 2.52 in - - ()
Sea Level Pressure  
Sea Level Pressure 29.93 in    
Wind  
Wind Speed 13 mph (WNW)    
Max Wind Speed 21 mph    
Max Gust Speed 28 mph    
Visibility 7 miles    
Events Rain , Snow    
Averages and records for this station are not official NWS values.
T = Trace of Precipitation, MM = Missing Value Source: NWS Daily Summary

Daily Weather History Graph

Daily Weather History Graph

Search for Another Location

Airport or City:

Trip Planner

Search our weather history database for the weather conditions in past years. The results will help you decide how hot, cold, wet, or windy it might be!

Date:

Astronomy

Feb. 01, 2013 Rise Set
Actual Time 7:20 AM MST 4:59 PM MST
Civil Twilight 6:47 AM MST 5:32 PM MST
Nautical Twilight 6:11 AM MST 6:08 PM MST
Astronomical Twilight 5:35 AM MST 6:44 PM MST
Moon 11:37 PM MST (2/1) 9:29 AM MST (2/1)
Length of Visible Light 10h 44m
Length of Day
9h 39m
Waning Gibbous, 69% of the Moon is Illuminated
Feb 1
Waning Gibbous
Feb 3
Last Quarter
Feb 10
New
Feb 17
First Quarter
Feb 25
Full

Hourly Weather History & Observations

Time (MST) Temp. Windchill Dew Point Humidity Pressure Visibility Wind Dir Wind Speed Gust Speed Precip Events Conditions
12:15 AM 14.0 °F 1.2 °F 8.6 °F 79% 29.96 in 10.0 mi SW 10.4 mph - N/A   Overcast
12:35 AM 15.8 °F 4.2 °F 10.4 °F 79% 29.96 in 8.0 mi SW 9.2 mph - N/A   Overcast
12:55 AM 15.8 °F 2.1 °F 10.4 °F 79% 29.94 in 6.0 mi SW 12.7 mph - N/A   Overcast
1:15 AM 15.8 °F 0.9 °F 10.4 °F 79% 29.93 in 5.0 mi SW 15.0 mph - N/A   Haze
1:35 AM 17.6 °F 3.7 °F 12.2 °F 79% 29.92 in 10.0 mi SW 13.8 mph - N/A   Overcast
1:55 AM 17.6 °F 5.7 °F 12.2 °F 79% 29.92 in 9.0 mi SW 10.4 mph - N/A   Overcast
2:15 AM 17.6 °F 4.3 °F 14.0 °F 86% 29.91 in 10.0 mi SW 12.7 mph - N/A   Overcast
2:35 AM 17.6 °F 3.2 °F 14.0 °F 86% 29.89 in 10.0 mi SW 15.0 mph - N/A   Overcast
2:55 AM 19.4 °F 5.5 °F 14.0 °F 80% 29.88 in 10.0 mi SW 15.0 mph - N/A   Overcast
3:15 AM 19.4 °F 6.6 °F 14.0 °F 80% 29.88 in 10.0 mi SW 12.7 mph - N/A   Overcast
3:35 AM 19.4 °F 8.6 °F 14.0 °F 80% 29.87 in 10.0 mi SW 9.2 mph - N/A   Overcast
4:15 AM 19.4 °F - 14.0 °F 80% 29.87 in 10.0 mi Calm Calm - N/A   Overcast
4:35 AM 19.4 °F 6.6 °F 15.8 °F 86% 29.86 in 10.0 mi WSW 12.7 mph - N/A   Overcast
4:55 AM 21.2 °F 9.5 °F 15.8 °F 80% 29.85 in 10.0 mi SW 11.5 mph - N/A   Overcast
5:15 AM 23.0 °F 11.1 °F 17.6 °F 80% 29.84 in 10.0 mi WSW 12.7 mph - N/A   Overcast
5:35 AM 23.0 °F 8.7 °F 17.6 °F 80% 29.83 in 10.0 mi WSW 18.4 mph - N/A   Overcast
6:15 AM 21.2 °F 6.4 °F 17.6 °F 86% 29.84 in 10.0 mi West 18.4 mph - N/A   Overcast
6:35 AM 19.4 °F 4.5 °F 15.8 °F 86% 29.85 in 10.0 mi West 17.3 mph 20.7 mph N/A   Mostly Cloudy
6:55 AM 19.4 °F 5.5 °F 15.8 °F 86% 29.85 in 10.0 mi West 15.0 mph - N/A   Partly Cloudy
7:15 AM 17.6 °F 1.7 °F 15.8 °F 93% 29.85 in 10.0 mi West 18.4 mph - N/A   Clear
7:35 AM 17.6 °F 2.2 °F 15.8 °F 93% 29.85 in 10.0 mi West 17.3 mph - N/A   Clear
8:15 AM 17.6 °F 3.7 °F 14.0 °F 86% 29.87 in 10.0 mi West 13.8 mph - N/A   Partly Cloudy
8:35 AM 19.4 °F 5.5 °F 15.8 °F 86% 29.88 in 10.0 mi West 15.0 mph - N/A   Clear
9:15 AM 23.0 °F 9.6 °F 17.6 °F 80% 29.88 in 10.0 mi West 16.1 mph - N/A   Overcast
9:35 AM 23.0 °F 9.2 °F 19.4 °F 86% 29.89 in 10.0 mi WNW 17.3 mph 23.0 mph N/A   Overcast
9:55 AM 24.8 °F 12.9 °F 21.2 °F 86% 29.90 in 10.0 mi WNW 13.8 mph - N/A   Overcast
10:15 AM 24.8 °F 12.4 °F 23.0 °F 93% 29.91 in 10.0 mi WNW 15.0 mph 18.4 mph N/A   Overcast
10:35 AM 24.8 °F 10.3 °F 23.0 °F 93% 29.92 in 10.0 mi WNW 20.7 mph 25.3 mph N/A   Overcast
10:55 AM 24.8 °F 11.1 °F 23.0 °F 93% 29.93 in 9.0 mi WNW 18.4 mph - N/A   Overcast
11:15 AM 24.8 °F 13.4 °F 23.0 °F 93% 29.93 in 10.0 mi WNW 12.7 mph - N/A   Overcast
11:35 AM 26.6 °F 16.8 °F 23.0 °F 86% 29.92 in 10.0 mi West 10.4 mph - N/A   Overcast
11:55 AM 26.6 °F 14.7 °F 23.0 °F 86% 29.92 in 10.0 mi West 15.0 mph - N/A   Overcast
12:15 PM 26.6 °F 14.7 °F 23.0 °F 86% 29.92 in 10.0 mi West 15.0 mph - N/A   Overcast
12:35 PM 26.6 °F 15.2 °F 23.0 °F 86% 29.92 in 10.0 mi WNW 13.8 mph - N/A   Overcast
12:55 PM 26.6 °F 14.3 °F 24.8 °F 93% 29.92 in 5.0 mi WNW 16.1 mph - N/A Rain Light Freezing Rain
1:15 PM 28.4 °F 17.0 °F 24.8 °F 86% 29.92 in 10.0 mi West 15.0 mph 19.6 mph N/A   Overcast
1:35 PM 28.4 °F 15.8 °F 26.6 °F 93% 29.92 in 10.0 mi WNW 18.4 mph - N/A   Overcast
1:55 PM 30.2 °F 18.9 °F 28.4 °F 93% 29.93 in 10.0 mi WNW 16.1 mph 24.2 mph N/A   Overcast
2:15 PM 30.2 °F 17.8 °F 28.4 °F 93% 29.93 in 10.0 mi WNW 19.6 mph 24.2 mph N/A   Overcast
2:35 PM 32.0 °F 20.1 °F 28.4 °F 87% 29.93 in 10.0 mi WNW 19.6 mph 27.6 mph N/A   Overcast
2:55 PM 32.0 °F 20.8 °F 28.4 °F 87% 29.94 in 10.0 mi WNW 17.3 mph 21.9 mph N/A   Overcast
3:15 PM 32.0 °F 22.1 °F 28.4 °F 87% 29.94 in 7.0 mi NW 13.8 mph - N/A Snow Light Snow
3:35 PM 30.2 °F 19.3 °F 28.4 °F 93% 29.95 in 3.0 mi WNW 15.0 mph - 0.05 in Snow Light Snow
3:55 PM 30.2 °F 19.3 °F 28.4 °F 93% 29.96 in 4.0 mi WNW 15.0 mph 23.0 mph 0.08 in Snow Light Snow
4:15 PM 30.2 °F 19.8 °F 28.4 °F 93% 29.96 in 6.0 mi WNW 13.8 mph - N/A Snow Light Snow
4:35 PM 30.2 °F 20.2 °F 28.4 °F 93% 29.96 in 1.8 mi WNW 12.7 mph - 0.05 in Snow Light Snow
4:55 PM 28.4 °F 16.6 °F 28.4 °F 100% 29.96 in 1.8 mi WNW 16.1 mph - 0.16 in Snow Light Snow
5:15 PM 28.4 °F 16.2 °F 28.4 °F 100% 29.96 in 1.8 mi WNW 17.3 mph - 0.12 in Snow Light Snow
5:35 PM 28.4 °F 16.2 °F 28.4 °F 100% 29.96 in 2.5 mi NW 17.3 mph - 0.19 in Snow Light Snow
5:55 PM 28.4 °F 17.5 °F 28.4 °F 100% 29.97 in 2.0 mi NW 13.8 mph - 0.27 in Snow Light Snow
6:15 PM 28.4 °F 18.0 °F 28.4 °F 100% 29.97 in 2.0 mi NW 12.7 mph - 0.05 in Snow Light Snow
6:35 PM 28.4 °F 18.5 °F 28.4 °F 100% 29.98 in 1.8 mi NW 11.5 mph - 0.12 in Snow Light Snow
6:55 PM 28.4 °F 18.5 °F 28.4 °F 100% 29.98 in 2.0 mi NW 11.5 mph - 0.26 in Snow Light Snow
7:15 PM 28.4 °F 17.5 °F 28.4 °F 100% 29.99 in 2.5 mi NW 13.8 mph - 0.04 in Snow Light Snow
7:35 PM 28.4 °F 18.0 °F 28.4 °F 100% 29.99 in 2.0 mi NW 12.7 mph - 0.17 in Snow Light Snow
7:55 PM 28.4 °F 18.0 °F 28.4 °F 100% 30.00 in 5.0 mi NW 12.7 mph - 0.21 in Snow Light Snow
8:15 PM 28.4 °F 17.5 °F 26.6 °F 93% 30.00 in 5.0 mi NW 13.8 mph - N/A Rain Light Freezing Rain
8:35 PM 28.4 °F 18.5 °F 26.6 °F 93% 30.01 in 8.0 mi NNW 11.5 mph - N/A Rain Light Freezing Rain
8:55 PM 28.4 °F 19.1 °F 26.6 °F 93% 30.01 in 3.0 mi NW 10.4 mph - 0.02 in Snow Light Snow
9:15 PM 28.4 °F 18.5 °F 26.6 °F 93% 30.01 in 4.0 mi NW 11.5 mph - 0.03 in Snow Light Snow
9:35 PM 28.4 °F 19.1 °F 28.4 °F 100% 30.02 in 3.0 mi NW 10.4 mph - 0.09 in Snow Light Snow
9:55 PM 28.4 °F - 28.4 °F 100% 30.02 in 5.0 mi North - - 0.11 in Snow Light Snow
10:15 PM 28.4 °F 19.1 °F 28.4 °F 100% 30.02 in 3.0 mi WNW 10.4 mph - 0.06 in Snow Light Snow
10:35 PM 28.4 °F 19.1 °F 28.4 °F 100% 30.02 in 1.8 mi West 10.4 mph - 0.16 in Snow Light Snow
10:55 PM 28.4 °F 20.4 °F 28.4 °F 100% 30.02 in 1.2 mi West 8.1 mph - 0.42 in Snow Light Snow
11:15 PM 28.4 °F 20.4 °F 28.4 °F 100% 30.02 in 0.8 mi West 8.1 mph - 0.24 in Snow Light Snow
11:35 PM 28.4 °F 21.2 °F 28.4 °F 100% 30.02 in 1.0 mi West 6.9 mph - 0.69 in Snow Light Snow
11:55 PM 30.2 °F 21.3 °F 30.2 °F 100% 30.02 in 1.0 mi West 10.4 mph - 0.99 in Snow Light Snow